Погода в Таутове

Россия / Чувашская Республика     55°42′35″N   46°37′38″E
темп.,
°C
ветер,
м/с
пор.,
м/с
влажн.,
%
обл.,
%
осадки,
мм/ч
давл.,
гПа
погр.,
м
25 мая, ср
ср2500:000сз228511 0.0 100815
03:00−1сз3387100 0.0 100930
06:00+3сз358575 0.0 1009236
09:00+7зсз576870 0.0 10091233
12:00+7сз466882 0.2 10101085
15:00+9зсз686588 1.3 10101491
18:00+8зсз5977100 0.8 1011856
21:00+3з4109562 1.1 1012306
26 мая, чт
чт2600:00+4зюз4109496 0.0 1012302
03:00+1зюз499370 0.1 1013166
06:00+4юз478593 0.0 1012223
09:00+9юз5774100 0.0 10121053
12:00+9юз71079100 0.8 10111327
15:00+7юз5991100 1.6 1011967
18:00+10юз267920 0.0 1009609
21:00+7юв3391100 0.0 100837
27 мая, пт
пт2700:00+8ю3897100 0.1 1005167
03:00+9ююв51198100 3.6 1002357
06:00+9ююв71496100 4.8 999745
09:00+10ю7139399 5.2 997807
12:00+10ю71292100 0.4 997848
15:00+10ююз61295100 1.0 997808
18:00+9юз61297100 0.6 998538
21:00+9зюз71297100 1.1 1000678
28 мая, сб
сб2800:00+9зюз61296100 0.3 1002539
03:00+9юз5119699 0.3 1003351
06:00+10юз61194100 0.0 1004443
09:00+11ю61192100 0.8 10041245
12:00+10ююз81594100 0.8 10021046
15:00+14юз915861 1.1 10021148
18:00+14зюз611780 0.4 10051021
21:00+9юз411915 0.4 1008211
29 мая, вс
вс2900:00+9юз5148577 0.0 1009339
03:00+7юз5139289 0.0 1011356
06:00+10юз5128597 0.0 1013635
09:00+12юз71274100 0.0 10141236
12:00+15юз8115998 0.0 10151853
15:00+16юз6106190 0.1 10152007
18:00+13юз6118379 0.9 1017671
21:00+10юз4119442 0.9 1019276